Location: Arthez
(43.0833°N, 0.2500°W)
Time: 00:28:50
(UTC+00:00)

Cosmos 407 Rocket - Pass Details

Date: 23 October 2021
Orbit: 743 x 787 km, 74.0° (Epoch: 27 November)

Event Time Altitude Azimuth Distance (km) Brightness Sun altitude
Rises 18:49:41 0° 346° (NNW) 3,269 7.0 -19.7°
Reaches altitude 10° 18:52:16 10° 355° (N) 2,343 6.1 -20.1°
Enters shadow 18:56:50 36° 53° (NE) 1,230 4.2 -21.0°
